Ellensburg, WA
on Monday, November 19, 2012

Monday
Previous Day Next Day
Daily Summary
 ActualAverage (KYKM)Record (KYKM)
Temperature
Mean Temperature °F 36°F  
Max Temperature 54°F 46°F 69°F (1962)
Min Temperature 43°F 26°F 4°F (1985)
Degree Days
Heating Degree Days 16 29  
Month to date heating degree days 486  
Since 1 July heating degree days 1190  
Cooling Degree Days 0 0  
Month to date cooling degree days 0  
Year to date cooling degree days 472  
Moisture
Dew Point 40°F   
Average Humidity 73    
Maximum Humidity 83    
Minimum Humidity 59    
Precipitation
Precipitation 0.12 in 0.03 in 1.70 in (1996)
Month to date precipitation 0.61  
Year to date precipitation 6.28  
Snow
Snow 0.00 in 0.10 in 14.80 in (1996)
Month to date snowfall 1.3  
Year to date snowfall 10.0  
Since 1 July snowfall 1.4  
Snow Depth in   
Wind
Wind Speed 7 mph   
Max Wind Speed 12 mph   
Max Gust Speed 17 mph   
Visibility 10 miles   
Events Rain   

Key: T is trace of precipitation, MM is missing value
Source: NWS Daily Summary
Time(PST)TemperatureDew PointHumidity Pressure Visibility Wind DirectionWind SpeedGust SpeedPrecipitationEvents Conditions
12:53 AM 43.0°F 37.9°F 82% 29.73 in 10.0 miles ENE 4.6 mph - 0.05 in Rain Light Rain
1:33 AM 44.6°F 37.4°F 76% 29.71 in 10.0 miles East 9.2 mph - 0.02 in Rain Light Rain
1:53 AM 43.0°F 37.9°F 82% 29.72 in 10.0 miles East 9.2 mph - 0.02 in   Overcast
2:53 AM 44.1°F 37.9°F 79% 29.70 in 10.0 miles East 9.2 mph - 0.01 in   Overcast
3:53 AM 44.1°F 37.9°F 79% 29.69 in 10.0 miles East 6.9 mph - N/A   Overcast
4:53 AM 45.0°F 37.9°F 76% 29.69 in 10.0 miles East 5.8 mph - 0.00 in   Overcast
5:53 AM 45.0°F 39.0°F 80% 29.68 in 10.0 miles ENE 4.6 mph - 0.00 in Rain Light Rain
6:03 AM 44.6°F 39.2°F 81% 29.66 in 10.0 miles East 5.8 mph - 0.00 in   Overcast
6:27 AM 46.4°F 39.2°F 76% 29.64 in 10.0 miles ESE 6.9 mph - 0.00 in   Overcast
6:41 AM 46.4°F 39.2°F 76% 29.65 in 10.0 miles East 6.9 mph - 0.00 in   Overcast
6:53 AM 46.0°F 39.0°F 76% 29.66 in 10.0 miles East 8.1 mph - 0.00 in   Overcast
7:53 AM 48.0°F 39.0°F 71% 29.65 in 10.0 miles ENE 8.1 mph - N/A   Overcast
8:53 AM 48.9°F 39.0°F 69% 29.64 in 10.0 miles East 8.1 mph - 0.00 in   Overcast
9:53 AM 50.0°F 39.0°F 66% 29.65 in 10.0 miles SE 9.2 mph - N/A   Overcast
10:53 AM 50.0°F 39.0°F 66% 29.62 in 10.0 miles ESE 9.2 mph - 0.00 in   Overcast
11:53 AM 52.0°F 39.0°F 61% 29.58 in 10.0 miles East 11.5 mph - N/A   Overcast
12:53 PM 53.1°F 39.0°F 59% 29.56 in 10.0 miles ESE 3.5 mph - N/A   Overcast
1:53 PM 54.0°F 39.9°F 59% 29.55 in 10.0 miles ESE 8.1 mph 17.3 mph N/A   Overcast
2:53 PM 53.1°F 41.0°F 64% 29.54 in 10.0 miles ESE 10.4 mph - 0.00 in   Overcast
3:00 PM 53.6°F 42.8°F 67% 29.52 in 10.0 miles East 8.1 mph - 0.00 in Rain Light Rain
3:53 PM 53.1°F 42.1°F 66% 29.56 in 10.0 miles South 5.8 mph - 0.00 in   Overcast
4:45 PM 50.0°F 44.6°F 82% 29.60 in 7.0 miles WSW 6.9 mph - 0.03 in Rain Light Rain
4:53 PM 50.0°F 44.1°F 80% 29.60 in 10.0 miles West 9.2 mph - 0.03 in Rain Light Rain
5:53 PM 46.9°F 42.1°F 83% 29.62 in 10.0 miles Calm Calm - 0.00 in   Overcast
6:53 PM 50.0°F 42.1°F 74% 29.62 in 10.0 miles SE 8.1 mph - N/A   Overcast
7:53 PM 50.0°F 42.1°F 74% 29.63 in 10.0 miles SSE 4.6 mph - N/A   Overcast
8:53 PM 48.0°F 39.9°F 74% 29.65 in 10.0 miles SSE 10.4 mph - 0.01 in   Overcast
9:53 PM 46.9°F 39.0°F 74% 29.64 in 10.0 miles ESE 5.8 mph - N/A   Partly Cloudy
10:53 PM 46.9°F 39.0°F 74% 29.69 in 10.0 miles Calm Calm - N/A   Mostly Cloudy
11:53 PM 45.0°F 37.9°F 76% 29.73 in 10.0 miles Calm Calm - N/A   Partly Cloudy
Moon Phase
Nov. 19 Nov. 20 Nov. 28 Dec. 06 Dec. 13
Sunrise:07:12 AM (PST) Moon Rise:12:08 PM (PST)
Sunset:04:22 PM (PST) Moon Set:11:06 PM (PST)

Copyright © 2014 The Weather Underground, Inc.